Torna al catalogo

NOAA 16 DEB

AttivoSSO
NORAD 41272·DEBRIS·🇺🇸 United States

Lanciato Sep 21, 2000 da Vandenberg Space Force Base

Loading…

Prossimi Passaggi (prossime 24 ore)

TLE

AggiornatoSource: Space-Track

Epoca: Sep 11, 2026, 03:51 UTC

1 41272U 00055FY  26254.16057781  .00002440  00000-0  10198-2 0  9991
2 41272  98.7384 322.5894 0026369 229.1609 130.7285 14.26870840552609

Traccia NOAA 16 DEB in tempo reale con AllMySat

Download on the App Store